SSEC Globe Logo

Space Science and Engineering Center

Surface Aviation Observations

KAIG 131015Z AUTO 17005KT 1/4SM FZFG OVC002 M01/M01 A2994
     RMK AO2 T10101010=
KAIG 131015Z AUTO 17005KT 1/4SM FZFG OVC002 M01/M01 A2994
     RMK AO2 T10101010=
KAIG 130955Z AUTO 15004KT 1/4SM FZFG OVC002 M01/M01 A2993
     RMK AO2 T10101010=
KAIG 130955Z AUTO 15004KT 1/4SM FZFG OVC002 M01/M01 A2993
     RMK AO2 T10101010=
KC29 131015Z AUTO 00000KT 2 1/2SM CLR M06/M06 A2999 RMK AO1
     T10561061=
KC29 131015Z AUTO 00000KT 2 1/2SM CLR M06/M06 A2999 RMK AO1
     T10561061=
KC29 130955Z AUTO 00000KT 2SM CLR M04/M04 A2998 RMK AO1
     T10411044=
KC29 130955Z AUTO 00000KT 2SM CLR M04/M04 A2998 RMK AO1
     T10411044=
KBCK 131015Z AUTO 00000KT 1 1/2SM BR OVC006 M02/M02 A2997
     RMK AO2 T10201020=
KBCK 131015Z AUTO 00000KT 1 1/2SM BR OVC006 M02/M02 A2997
     RMK AO2 T10201020=
KBCK 130955Z AUTO 00000KT 1 1/2SM BR OVC006 M02/M02 A2996
     RMK AO2 T10181018=
KBCK 130955Z AUTO 00000KT 1 1/2SM BR OVC006 M02/M02 A2996
     RMK AO2 T10181018=
KUBE 131015Z AUTO 00000KT 2 1/2SM BR BKN005 OVC015 M02/M03
     A2991 RMK AO2=
KUBE 131015Z AUTO 00000KT 2 1/2SM BR BKN005 OVC015 M02/M03
     A2991 RMK AO2=
KUBE 130955Z AUTO 00000KT 2 1/2SM BR OVC005 M02/M03 A2991
     RMK AO2=
KUBE 130955Z AUTO 00000KT 2 1/2SM BR OVC005 M02/M03 A2991
     RMK AO2=
KPVB 131015Z AUTO 06004KT 1/4SM OVC001 M06/M06 A2997 RMK AO1
     T10581058=
KPVB 131015Z AUTO 06004KT 1/4SM OVC001 M06/M06 A2997 RMK AO1
     T10581058=
KPVB 130955Z AUTO 00000KT 1/4SM OVC001 M06/M06 A2997 RMK AO1
     T10561056=
KPVB 130955Z AUTO 00000KT 1/4SM OVC001 M06/M06 A2997 RMK AO1
     T10561056=
KEZS 131015Z AUTO 00000KT 2 1/2SM BR OVC006 01/00 A2997 RMK
     AO2 T00110004=
KEZS 131015Z AUTO 00000KT 2 1/2SM BR OVC006 01/00 A2997 RMK
     AO2 T00110004=
KEZS 130955Z AUTO 00000KT 3SM BR OVC006 01/00 A2997 RMK AO2
     T00110004=
KEZS 130955Z AUTO 00000KT 3SM BR OVC006 01/00 A2997 RMK AO2
     T00110004=
KARV 131015Z AUTO 16005KT 2 1/2SM BR OVC001 00/00 A2991 RMK
     AO2 T10011005=
KARV 131015Z AUTO 16005KT 2 1/2SM BR OVC001 00/00 A2991 RMK
     AO2 T10011005=
KARV 130955Z AUTO 14004KT 1 1/4SM BR OVC001 00/00 A2991 RMK
     AO2 T10011005=
KARV 130955Z AUTO 14004KT 1 1/4SM BR OVC001 00/00 A2991 RMK
     AO2 T10011005=
KASX 130953Z AUTO 17004KT 2 1/2SM BR OVC015 M01/M02 A2993
     RMK AO2 SLP147 T10061017=
KASX 130953Z AUTO 17004KT 2 1/2SM BR OVC015 M01/M02 A2993
     RMK AO2 SLP147 T10061017=
KATW 131015Z AUTO 21005KT 2 1/2SM BR OVC003 00/00 A2997 RMK
     AO2=
KATW 131015Z AUTO 21005KT 2 1/2SM BR OVC003 00/00 A2997 RMK
     AO2=
KATW 130955Z AUTO 19003KT 1 1/2SM BR OVC003 00/00 A2995 RMK
     AO2=
KATW 130955Z AUTO 19003KT 1 1/2SM BR OVC003 00/00 A2995 RMK
     AO2=
KAUW 130954Z AUTO 18004KT 3/4SM BR OVC002 M01/M01 A2993 RMK
     AO2 SLP154 I1000 T10061006=
KAUW 130954Z AUTO 18004KT 3/4SM BR OVC002 M01/M01 A2993 RMK
     AO2 SLP154 I1000 T10061006=
KBUU 131015Z AUTO 00000KT 1SM BR VV007 M07/M08 A3001 RMK AO2
     T10691078=
KBUU 131015Z AUTO 00000KT 1SM BR VV007 M07/M08 A3001 RMK AO2
     T10691078=
KBUU 130955Z AUTO 00000KT 1/4SM FZFG VV002 M08/M09 A3000 RMK
     AO2 T10801089=
KBUU 130955Z AUTO 00000KT 1/4SM FZFG VV002 M08/M09 A3000 RMK
     AO2 T10801089=
KCLI 131015Z AUTO 00000KT 1 3/4SM BR OVC003 00/00 A2998 RMK
     AO2 T00020000=
KCLI 131015Z AUTO 00000KT 1 3/4SM BR OVC003 00/00 A2998 RMK
     AO2 T00020000=
KCLI 130955Z AUTO 00000KT 3/4SM BR OVC003 00/00 A2997 RMK
     AO2 T00020000=
KCLI 130955Z AUTO 00000KT 3/4SM BR OVC003 00/00 A2997 RMK
     AO2 T00020000=
KCWA 131015Z AUTO 20005KT 3SM BR OVC004 00/00 A2996 RMK AO2=
KCWA 131015Z AUTO 20005KT 3SM BR OVC004 00/00 A2996 RMK AO2=
KCWA 130955Z AUTO 20005KT 2SM BR OVC002 00/00 A2996 RMK AO2=
KCWA 130955Z AUTO 20005KT 2SM BR OVC002 00/00 A2996 RMK AO2=
KDLL 131015Z AUTO 00000KT M1/4SM FZFG OVC008 M05/M06 A2998
     RMK AO2 T10521056=
KDLL 131015Z AUTO 00000KT M1/4SM FZFG OVC008 M05/M06 A2998
     RMK AO2 T10521056=
KDLL 130955Z AUTO 00000KT M1/4SM FZFG VV000 M04/M04 A2997
     RMK AO2 T10361040=
KDLL 130955Z AUTO 00000KT M1/4SM FZFG VV000 M04/M04 A2997
     RMK AO2 T10361040=
KEAU 130956Z AUTO 18006KT 2 1/2SM BR OVC006 M02/M03 A2995
     RMK AO2 SLP153 T10221033=
KEAU 130956Z AUTO 18006KT 2 1/2SM BR OVC006 M02/M03 A2995
     RMK AO2 SLP153 T10221033=
KEFT 131015Z AUTO 1SM BR VV007 M05/M06 A2998 RMK AO2
     T10531060=
KEFT 131015Z AUTO 1SM BR VV007 M05/M06 A2998 RMK AO2
     T10531060=
KEFT 130955Z AUTO 1 1/4SM BR VV007 M05/M06 A2997 RMK AO2
     T10541060=
KEFT 130955Z AUTO 1 1/4SM BR VV007 M05/M06 A2997 RMK AO2
     T10541060=
KEGV 131015Z AUTO 00000KT 2 1/2SM BR OVC003 M01/M01 A2991
     RMK AO2 T10121012=
KEGV 131015Z AUTO 00000KT 2 1/2SM BR OVC003 M01/M01 A2991
     RMK AO2 T10121012=
KEGV 130955Z AUTO 00000KT 2 1/2SM BR OVC003 M01/M01 A2990
     RMK AO2 T10131013=
KEGV 130955Z AUTO 00000KT 2 1/2SM BR OVC003 M01/M01 A2990
     RMK AO2 T10131013=
KENW 131002Z AUTO 24003KT 2SM BR SCT027 M04/M04 A3001 RMK
     AO2 T10391044 $=
KENW 130953Z AUTO 24003KT 2 1/2SM BR BKN026 M03/M04 A3000
     RMK AO2 SLP169 T10281039 $=
KENW 130953Z AUTO 24003KT 2 1/2SM BR BKN026 M03/M04 A3000
     RMK AO2 SLP169 T10281039 $=
KETB 131015Z AUTO 23003KT 2SM BR SCT005 OVC014 00/00 A3000
     RMK AO2=
KETB 131015Z AUTO 23003KT 2SM BR SCT005 OVC014 00/00 A3000
     RMK AO2=
KETB 130955Z AUTO 26003KT 2SM BR OVC005 00/00 A2999 RMK AO2=
KETB 130955Z AUTO 26003KT 2SM BR OVC005 00/00 A2999 RMK AO2=
KFLD 130953Z AUTO 22005KT 1 1/4SM BR OVC003 00/M01 A2998 RMK
     AO2 SLP162 T00001006=
KFLD 130953Z AUTO 22005KT 1 1/4SM BR OVC003 00/M01 A2998 RMK
     AO2 SLP162 T00001006=
KGRB 130953Z AUTO 00000KT 1/4SM FG VV002 01/01 A2998 RMK AO2
     SLP158 T00060006 RVRNO=
KGRB 130953Z AUTO 00000KT 1/4SM FG VV002 01/01 A2998 RMK AO2
     SLP158 T00060006 RVRNO=
KHYR 130953Z AUTO 19006KT 4SM BR OVC009 00/M02 A2990 RMK AO2
     CIG 007V012 SLP142 T00001017=
KHYR 130953Z AUTO 19006KT 4SM BR OVC009 00/M02 A2990 RMK AO2
     CIG 007V012 SLP142 T00001017=
KISW 130954Z AUTO 22005KT 4SM BR OVC006 M01/M03 A2997 RMK
     AO2 SLP163 T10111028 TSNO=
KISW 130954Z AUTO 22005KT 4SM BR OVC006 M01/M03 A2997 RMK
     AO2 SLP163 T10111028 TSNO=
KJVL 131015Z AUTO 00000KT 3SM BR CLR M06/M06 A3000 RMK AO2=
KJVL 131015Z AUTO 00000KT 3SM BR CLR M06/M06 A3000 RMK AO2=
KJVL 130955Z AUTO 00000KT 3SM BR CLR M06/M06 A2999 RMK AO2=
KJVL 130955Z AUTO 00000KT 3SM BR CLR M06/M06 A2999 RMK AO2=
KLNL 131015Z AUTO 00000KT 2 1/2SM BR OVC004 M01/M01 A2993
     RMK AO2 T10101011=
KLNL 131015Z AUTO 00000KT 2 1/2SM BR OVC004 M01/M01 A2993
     RMK AO2 T10101011=
KLNL 130955Z AUTO 00000KT 2 1/2SM BR OVC004 M01/M01 A2992
     RMK AO2 T10101011=
KLNL 130955Z AUTO 00000KT 2 1/2SM BR OVC004 M01/M01 A2992
     RMK AO2 T10101011=
KLNR 130956Z AUTO 00000KT 1/4SM FZFG VV002 M05/M05 A2999 RMK
     AO2 SLP161 I1000 T10501050=
KLNR 130956Z AUTO 00000KT 1/4SM FZFG VV002 M05/M05 A2999 RMK
     AO2 SLP161 I1000 T10501050=
KLSE 130953Z AUTO 17007KT 2SM BR OVC005 M03/M05 A2997 RMK
     AO2 SLP162 T10331050=
KLSE 130953Z AUTO 17007KT 2SM BR OVC005 M03/M05 A2997 RMK
     AO2 SLP162 T10331050=
KLUM 131015Z AUTO 12004KT 2 1/2SM BR OVC005 M04/M06 A2994
     RMK AO2 T10451056=
KLUM 131015Z AUTO 12004KT 2 1/2SM BR OVC005 M04/M06 A2994
     RMK AO2 T10451056=
KLUM 130955Z AUTO 14004KT 2 1/2SM BR OVC005 M04/M05 A2995
     RMK AO2 T10451055=
KLUM 130955Z AUTO 14004KT 2 1/2SM BR OVC005 M04/M05 A2995
     RMK AO2 T10451055=
KMDZ 131015Z AUTO 21005KT 3SM BR OVC005 M02/M02 A2993 RMK
     AO2 T10171021 TSNO=
KMDZ 131015Z AUTO 21005KT 3SM BR OVC005 M02/M02 A2993 RMK
     AO2 T10171021 TSNO=
KMDZ 130955Z AUTO 18004KT 4SM BR OVC005 M02/M02 A2992 RMK
     AO2 T10171022 TSNO=
KMDZ 130955Z AUTO 18004KT 4SM BR OVC005 M02/M02 A2992 RMK
     AO2 T10171022 TSNO=
KMFI 131013Z AUTO 20004KT OVC004 M01/M02 A2994 RMK AO2
     T10111017 TSNO $=
KMFI 131003Z AUTO 19004KT OVC005 M01/M02 A2994 RMK AO2
     T10111017 TSNO $=
KMFI 130954Z AUTO 20005KT OVC004 M01/M02 A2994 RMK AO2
     SLP155 T10111017 TSNO $=
KMFI 130954Z AUTO 20005KT OVC004 M01/M02 A2994 RMK AO2
     SLP155 T10111017 TSNO $=
KMKE 130952Z 24005KT 3SM HZ BKN024 M01/M03 A3000 RMK AO2
     SLP169 T10061033=
KMKE 130952Z 24005KT 3SM HZ BKN024 M01/M03 A3000 RMK AO2
     SLP169 T10061033=
KMRJ 131015Z AUTO 00000KT M1/4SM FZFG OVC002 M03/M03 A2997
     RMK AO2=
KMRJ 131015Z AUTO 00000KT M1/4SM FZFG OVC002 M03/M03 A2997
     RMK AO2=
KMRJ 130955Z AUTO 00000KT M1/4SM FZFG OVC002 M03/M03 A2997
     RMK AO2=
KMRJ 130955Z AUTO 00000KT M1/4SM FZFG OVC002 M03/M03 A2997
     RMK AO2=
KMSN 130953Z 00000KT 1 3/4SM BR CLR M04/M05 A2999 RMK AO2
     SLP166 T10391050=
KMSN 130953Z 00000KT 1 3/4SM BR CLR M04/M05 A2999 RMK AO2
     SLP166 T10391050=
KMTW 130956Z AUTO 00000KT 1 1/2SM BR OVC004 01/00 A2999 RMK
     AO2 SLP178 T00060000 FZRANO=
KMTW 130956Z AUTO 00000KT 1 1/2SM BR OVC004 01/00 A2999 RMK
     AO2 SLP178 T00060000 FZRANO=
KMWC 131015Z AUTO 23003KT 3SM BR SCT008 OVC024 M01/M03 A3001
     RMK AO2=
KMWC 131015Z AUTO 23003KT 3SM BR SCT008 OVC024 M01/M03 A3001
     RMK AO2=
KMWC 130955Z AUTO 22004KT 3SM BR SCT008 OVC024 M01/M03 A3001
     RMK AO2=
KMWC 130955Z AUTO 22004KT 3SM BR SCT008 OVC024 M01/M03 A3001
     RMK AO2=
KOEO 131015Z AUTO 16004KT 2SM BR OVC003 M03/M03 A2995 RMK
     AO2 T10311033=
KOEO 131015Z AUTO 16004KT 2SM BR OVC003 M03/M03 A2995 RMK
     AO2 T10311033=
KOEO 130955Z AUTO 16008KT 2SM BR OVC003 M03/M03 A2995 RMK
     AO2 T10321035=
KOEO 130955Z AUTO 16008KT 2SM BR OVC003 M03/M03 A2995 RMK
     AO2 T10321035=
KOSH 130953Z AUTO 20005KT 1SM R36/4000VP6000FT BR VV002
     01/00 A2997 RMK AO2 SLP161 T00060000=
KOSH 130953Z AUTO 20005KT 1SM R36/4000VP6000FT BR VV002
     01/00 A2997 RMK AO2 SLP161 T00060000=
KOSH 130946Z AUTO 20004KT 1/4SM R36/2000V6000FT FG VV002
     01/00 A2997 RMK AO2 T00060000=
KOVS 131015Z AUTO 00000KT 2SM BR OVC003 M04/M05 A3000 RMK
     AO2 T10391050=
KOVS 131008Z AUTO 00000KT 1 3/4SM BR OVC003 M04/M04 A3000
     RMK AO2 T10391044=
KOVS 130953Z AUTO 19003KT 2 1/2SM BR OVC003 M04/M05 A3000
     RMK AO2 SLP167 T10391050=
KOVS 130953Z AUTO 19003KT 2 1/2SM BR OVC003 M04/M05 A3000
     RMK AO2 SLP167 T10391050=
KPBH 131015Z AUTO 17004KT 5SM BR OVC005 M01/M01 A2991 RMK
     AO2 T10131013=
KPBH 131015Z AUTO 17004KT 5SM BR OVC005 M01/M01 A2991 RMK
     AO2 T10131013=
KPBH 130955Z AUTO 17004KT 5SM BR OVC005 M01/M01 A2991 RMK
     AO2 T10131013=
KPBH 130955Z AUTO 17004KT 5SM BR OVC005 M01/M01 A2991 RMK
     AO2 T10131013=
KPCZ 131015Z AUTO 00000KT 1/4SM FG OVC001 01/01 A2998 RMK
     AO2 T00120007=
KPCZ 131015Z AUTO 00000KT 1/4SM FG OVC001 01/01 A2998 RMK
     AO2 T00120007=
KPCZ 130955Z AUTO 00000KT 1/4SM FG OVC001 01/01 A2998 RMK
     AO2 T00110006=
KPCZ 130955Z AUTO 00000KT 1/4SM FG OVC001 01/01 A2998 RMK
     AO2 T00110006=
KPDC 131015Z AUTO 13005KT 4SM BR OVC005 M03/M04 A2999 RMK
     AO2 T10321045=
KPDC 131015Z AUTO 13005KT 4SM BR OVC005 M03/M04 A2999 RMK
     AO2 T10321045=
KPDC 130955Z AUTO 11003KT 4SM BR OVC005 M03/M04 A2998 RMK
     AO2 T10321045=
KPDC 130955Z AUTO 11003KT 4SM BR OVC005 M03/M04 A2998 RMK
     AO2 T10321045=
KRAC 130953Z AUTO 23004KT 4SM HZ OVC024 M01/M03 A3002 RMK
     AO2 SLP174 T10061033=
KRAC 130953Z AUTO 23004KT 4SM HZ OVC024 M01/M03 A3002 RMK
     AO2 SLP174 T10061033=
KRCX 131015Z AUTO 17004KT 2 1/2SM BR OVC003 00/00 A2994 RMK
     AO2 T10031005=
KRCX 131015Z AUTO 17004KT 2 1/2SM BR OVC003 00/00 A2994 RMK
     AO2 T10031005=
KRCX 130955Z AUTO 20004KT 1SM BR OVC003 00/00 A2994 RMK AO2
     T10011005=
KRCX 130955Z AUTO 20004KT 1SM BR OVC003 00/00 A2994 RMK AO2
     T10011005=
KRHI 130953Z AUTO 00000KT 1/2SM FZFG VV003 M01/M02 A2992 RMK
     AO2 SLP151 T10061022=
KRHI 130953Z AUTO 00000KT 1/2SM FZFG VV003 M01/M02 A2992 RMK
     AO2 SLP151 T10061022=
KRNH 131015Z AUTO 16004KT 3/4SM BR OVC001 M03/M04 A2992 RMK
     AO2 T10351040=
KRNH 131015Z AUTO 16004KT 3/4SM BR OVC001 M03/M04 A2992 RMK
     AO2 T10351040=
KRNH 130955Z AUTO 16006KT 3/4SM BR OVC001 M04/M04 A2992 RMK
     AO2 T10361041=
KRNH 130955Z AUTO 16006KT 3/4SM BR OVC001 M04/M04 A2992 RMK
     AO2 T10361041=
KRPD 131015Z AUTO 14005KT 1 1/2SM BR OVC006 M02/M02 A2994
     RMK AO2 T10231023=
KRPD 131015Z AUTO 14005KT 1 1/2SM BR OVC006 M02/M02 A2994
     RMK AO2 T10231023=
KRPD 130955Z AUTO 14004KT 1 3/4SM BR OVC006 M02/M02 A2993
     RMK AO2 T10191019=
KRPD 130955Z AUTO 14004KT 1 3/4SM BR OVC006 M02/M02 A2993
     RMK AO2 T10191019=
KRRL 131015Z AUTO 00000KT 1 1/4SM BR OVC002 00/00 A2995 RMK
     AO2 T10051005 TSNO=
KRRL 131015Z AUTO 00000KT 1 1/4SM BR OVC002 00/00 A2995 RMK
     AO2 T10051005 TSNO=
KRRL 130955Z AUTO 00000KT 1 1/2SM BR OVC002 00/00 A2994 RMK
     AO2 T10051005 TSNO=
KRRL 130955Z AUTO 00000KT 1 1/2SM BR OVC002 00/00 A2994 RMK
     AO2 T10051005 TSNO=
KRYV 131015Z AUTO 00000KT 4SM BR OVC021 M02/M02 A2999 RMK
     AO2 T10221022=
KRYV 131015Z AUTO 00000KT 4SM BR OVC021 M02/M02 A2999 RMK
     AO2 T10221022=
KRYV 130955Z AUTO 00000KT 4SM BR OVC021 M02/M02 A2999 RMK
     AO2 T10201020=
KRYV 130955Z AUTO 00000KT 4SM BR OVC021 M02/M02 A2999 RMK
     AO2 T10201020=
KRZN 131015Z AUTO 16004KT 2SM BR OVC007 M02/M03 A2990 RMK
     AO2 T10201030=
KRZN 131015Z AUTO 16004KT 2SM BR OVC007 M02/M03 A2990 RMK
     AO2 T10201030=
KRZN 130955Z AUTO 18005KT 2SM BR OVC007 M02/M03 A2990 RMK
     AO2 T10201030=
KRZN 130955Z AUTO 18005KT 2SM BR OVC007 M02/M03 A2990 RMK
     AO2 T10201030=
KSBM 130953Z AUTO 00000KT 3/4SM BR OVC002 M01/M01 A2998 RMK
     AO2 SLP161 T10061011=
KSBM 130953Z AUTO 00000KT 3/4SM BR OVC002 M01/M01 A2998 RMK
     AO2 SLP161 T10061011=
KSTE 131015Z AUTO 22003KT 2 1/2SM BR OVC004 M01/M01 A2997
     RMK AO2 T10121012=
KSTE 131015Z AUTO 22003KT 2 1/2SM BR OVC004 M01/M01 A2997
     RMK AO2 T10121012=
KSTE 130955Z AUTO 22004KT 3/4SM BR OVC002 M01/M01 A2996 RMK
     AO2 T10121012=
KSTE 130955Z AUTO 22004KT 3/4SM BR OVC002 M01/M01 A2996 RMK
     AO2 T10121012=
KSUE 131003Z AUTO 14003KT 1/4SM FG OVC002 01/M01 A2998 RMK
     AO2 FZRANO RVRNO=
KSUE 130956Z AUTO 14003KT 1/2SM FG OVC004 01/M01 A2998 RMK
     AO2 SLP177 T00061006 FZRANO RVRNO=
KSUE 130956Z AUTO 14003KT 1/2SM FG OVC004 01/M01 A2998 RMK
     AO2 SLP177 T00061006 FZRANO RVRNO=
KSUE 130952Z AUTO 00000KT 1/2SM FG OVC004 01/M01 A2998 RMK
     AO2 FZRANO RVRNO=
KSUW 131015Z AUTO 00000KT 7SM SCT014 OVC023 M02/M03 A2991
     RMK AO2 T10221028=
KSUW 131015Z AUTO 00000KT 7SM SCT014 OVC023 M02/M03 A2991
     RMK AO2 T10221028=
KSUW 130955Z AUTO 00000KT 7SM OVC023 M02/M03 A2991 RMK AO2
     T10221027=
KSUW 130955Z AUTO 00000KT 7SM OVC023 M02/M03 A2991 RMK AO2
     T10221027=
KTKV 131015Z AUTO 00000KT 3SM BR OVC003 M01/M01 A2994 RMK
     AO2 T10111015=
KTKV 131015Z AUTO 00000KT 3SM BR OVC003 M01/M01 A2994 RMK
     AO2 T10111015=
KTKV 130955Z AUTO 00000KT 3SM BR OVC003 M01/M02 A2993 RMK
     AO2 T10121016=
KTKV 130955Z AUTO 00000KT 3SM BR OVC003 M01/M02 A2993 RMK
     AO2 T10121016=
KUES 131015Z AUTO 24003KT 3SM BR BKN004 OVC017 M02/M03 A3001
     RMK AO2=
KUES 131015Z AUTO 24003KT 3SM BR BKN004 OVC017 M02/M03 A3001
     RMK AO2=
KUES 130955Z AUTO 22003KT 3SM BR OVC004 M02/M03 A3000 RMK
     AO2=
KUES 130955Z AUTO 22003KT 3SM BR OVC004 M02/M03 A3000 RMK
     AO2=
KUNU 131015Z AUTO 00000KT 1 1/2SM BR OVC017 M01/M02 A3000
     RMK AO2 T10131018 TSNO=
KUNU 131015Z AUTO 00000KT 1 1/2SM BR OVC017 M01/M02 A3000
     RMK AO2 T10131018 TSNO=
KUNU 130955Z AUTO 00000KT 1 1/2SM BR OVC015 M01/M02 A2999
     RMK AO2 T10141018 TSNO=
KUNU 130955Z AUTO 00000KT 1 1/2SM BR OVC015 M01/M02 A2999
     RMK AO2 T10141018 TSNO=
KVOK 130956Z AUTO 00000KT 4SM BR OVC008 M02/M02 A2997 RMK
     AO2 SLP163 T10191019=
KVOK 130956Z AUTO 00000KT 4SM BR OVC008 M02/M02 A2997 RMK
     AO2 SLP163 T10191019=
KVOK 130956Z AUTO 00000KT 4SM BR OVC008 M02/M02 A2997 RMK
     AO2 SLP163 T10191019=
METAR KVOK 130956Z AUTO 00000KT 4SM BR OVC008 M02/M02 A2997
     RMK AO2 SLP163 T10191019=
METAR KVOK 130956Z AUTO 00000KT 4SM BR OVC008 M02/M02 A2997
     RMK AO2 SLP163 T10191019=
KY50 131015Z AUTO 23004KT 3/4SM BR OVC003 00/M01 A2999 RMK
     AO2=
KY50 130956Z AUTO 21003KT 1 1/2SM BR OVC003 00/M01 A2998 RMK
     AO2 SLP183 T00001006=
KY50 130956Z AUTO 21003KT 1 1/2SM BR OVC003 00/M01 A2998 RMK
     AO2 SLP183 T00001006=
KY51 131015Z AUTO 17003KT 1/4SM M05/M05 A2995 RMK AO1
     T10511051=
KY51 131015Z AUTO 17003KT 1/4SM M05/M05 A2995 RMK AO1
     T10511051=
KY51 130955Z AUTO 00000KT M1/4SM M05/M05 A2994 RMK AO1
     T10531053=
KY51 130955Z AUTO 00000KT M1/4SM M05/M05 A2994 RMK AO1
     T10531053=
KY23 131015Z AUTO 15005KT 3SM BR OVC007 M02/M03 A2993 RMK
     AO2 T10221027=
KY23 131015Z AUTO 15005KT 3SM BR OVC007 M02/M03 A2993 RMK
     AO2 T10221027=
KY23 130955Z AUTO 15004KT 2 1/2SM BR OVC007 M02/M02 A2993
     RMK AO2 T10201025=
KY23 130955Z AUTO 15004KT 2 1/2SM BR OVC007 M02/M02 A2993
     RMK AO2 T10201025=
K3D2 131015Z AUTO 17004KT 3SM BR OVC034 01/01 A2996 RMK AO2
     T00100005=
K3D2 131015Z AUTO 17004KT 3SM BR OVC034 01/01 A2996 RMK AO2
     T00100005=
K3D2 130955Z AUTO 15003KT 3SM BR OVC034 01/01 A2996 RMK AO2
     T00100005=
K3D2 130955Z AUTO 15003KT 3SM BR OVC034 01/01 A2996 RMK AO2
     T00100005=
KD25 131015Z AUTO 17004KT 1 3/4SM BR OVC003 M02/M02 A2991
     RMK AO2 T10161016=
KD25 131015Z AUTO 17004KT 1 3/4SM BR OVC003 M02/M02 A2991
     RMK AO2 T10161016=
KD25 130955Z AUTO 18004KT 1 3/4SM BR OVC003 M02/M02 A2990
     RMK AO2 T10161016=
KD25 130955Z AUTO 18004KT 1 3/4SM BR OVC003 M02/M02 A2990
     RMK AO2 T10161016=
K82C 131015Z AUTO 00000KT M1/4SM FZFG OVC008 M04/M05 A2998
     RMK AO2 T10421046=
K82C 131015Z AUTO 00000KT M1/4SM FZFG OVC008 M04/M05 A2998
     RMK AO2 T10421046=
K82C 130955Z AUTO 00000KT 1/4SM FZFG OVC010 M04/M04 A2997
     RMK AO2 T10381042=
K82C 130955Z AUTO 00000KT 1/4SM FZFG OVC010 M04/M04 A2997
     RMK AO2 T10381042=
KOCQ 131015Z AUTO 00000KT 1 1/4SM OVC004 00/00 A2998 RMK AO1
     T00010000=
KOCQ 131015Z AUTO 00000KT 1 1/4SM OVC004 00/00 A2998 RMK AO1
     T00010000=
KOCQ 130955Z AUTO 00000KT 1 1/4SM OVC004 00/00 A2997 RMK AO1
     T00010000=
KOCQ 130955Z AUTO 00000KT 1 1/4SM OVC004 00/00 A2997 RMK AO1
     T00010000=
KC35 131015Z AUTO 00000KT M1/4SM FZFG OVC008 M06/M06 A2999
     RMK AO2 T10581058=
KC35 131015Z AUTO 00000KT M1/4SM FZFG OVC008 M06/M06 A2999
     RMK AO2 T10581058=
KC35 130955Z AUTO 00000KT M1/4SM FZFG OVC008 M05/M05 A2997
     RMK AO2 T10531053=
KC35 130955Z AUTO 00000KT M1/4SM FZFG OVC008 M05/M05 A2997
     RMK AO2 T10531053=
KOLG 131015Z AUTO 18004KT 4SM OVC007 M01/M01 A2989 RMK AO1=
KOLG 131015Z AUTO 18004KT 4SM OVC007 M01/M01 A2989 RMK AO1=
KOLG 130955Z AUTO 18003KT 4SM OVC005 M01/M01 A2989 RMK AO1=
KOLG 130955Z AUTO 18003KT 4SM OVC005 M01/M01 A2989 RMK AO1=
K2P2 131015Z AUTO 00000KT 4SM BR OVC012 01/00 A2997 RMK AO2
     T00120004=
K2P2 131015Z AUTO 00000KT 4SM BR OVC012 01/00 A2997 RMK AO2
     T00120004=
K2P2 130955Z AUTO 00000KT 4SM BR OVC010 01/00 A2997 RMK AO2
     T00100002=
K2P2 130955Z AUTO 00000KT 4SM BR OVC010 01/00 A2997 RMK AO2
     T00100002=
KDBQ 130953Z AUTO 09003KT 4SM BR CLR M05/M07 A2996 RMK AO2
     SLP160 I1000 T10501072=
KDBQ 130953Z AUTO 09003KT 4SM BR CLR M05/M07 A2996 RMK AO2
     SLP160 I1000 T10501072=
KRST 130954Z AUTO 14006KT 1/2SM R31/2000V3500FT FZFG VV002
     M06/M06 A2990 RMK AO2 SLP145 I1001 T10611061 $=
KRST 130954Z AUTO 14006KT 1/2SM R31/2000V3500FT FZFG VV002
     M06/M06 A2990 RMK AO2 SLP145 I1001 T10611061 $=
KMSP 130953Z 15004KT 2 1/2SM BR OVC004 M04/M04 A2992 RMK AO2
     SLP144 T10441044=
KMSP 130953Z 15004KT 2 1/2SM BR OVC004 M04/M04 A2992 RMK AO2
     SLP144 T10441044=
KRFD 130954Z 16004KT 5SM BR CLR M06/M08 A3002 RMK AO2 SLP178
     I1000 T10611078=
KRFD 130954Z 16004KT 5SM BR CLR M06/M08 A3002 RMK AO2 SLP178
     I1000 T10611078=
KORD 130951Z 00000KT 5SM BR CLR M03/M05 A3002 RMK AO2 SLP173
     I1000 T10331050=
KORD 130951Z 00000KT 5SM BR CLR M03/M05 A3002 RMK AO2 SLP173
     I1000 T10331050=